Terminal Aerodrome Forecast
Issued by NWS Greer, SC

Home | Current Version | Previous Version | Text Only | Print | Product List | Glossary On
Versions: 1 2 3 4 5 6 7 8 9 10 11 12 13 14
000
FTUS42 KGSP 061124
TAFGSP
TAF
KGSP 061124Z 0612/0712 06003KT P6SM FEW250
     FM061800 10006KT P6SM FEW250
     FM070300 00000KT P6SM FEW250=

USA.gov is the U.S. government's official web portal to all federal, state and local government web resources and services.